Rome, NY

8:02 AM EDT on August 18, 2017 (GMT -0400)
Griffiss

Weather History for KRME - January, 2014

Change the Weather History Date:

Thursday, January 9, 2014

  Actual Average Record
Temperature  
Mean Temperature 16 °F -  
Max Temperature 23 °F 29 °F 46 °F (2013)
Min Temperature 10 °F 12 °F -12 °F (1985)
Degree Days  
Heating Degree Days 48    
Moisture  
Dew Point 11 °F    
Average Humidity 77    
Maximum Humidity 91    
Minimum Humidity 61    
Precipitation  
Precipitation 0.00 in - - ()
Sea Level Pressure  
Sea Level Pressure 30.58 in    
Wind  
Wind Speed 4 mph (WNW)    
Max Wind Speed 12 mph    
Max Gust Speed -    
Visibility 7 miles    
Events Snow    
Averages and records for this station are not official NWS values.
T = Trace of Precipitation, MM = Missing Value Source: NWS Daily Summary

Daily Weather History Graph

Daily Weather History Graph

Search for Another Location

Airport or City:

Trip Planner

Search our weather history database for the weather conditions in past years. The results will help you decide how hot, cold, wet, or windy it might be!

Date:

Astronomy

Jan. 09, 2014 Rise Set
Actual Time 7:33 AM EST 4:44 PM EST
Civil Twilight 7:01 AM EST 5:16 PM EST
Nautical Twilight 6:25 AM EST 5:52 PM EST
Astronomical Twilight 5:51 AM EST 6:26 PM EST
Moon 12:14 PM EST (1/9) 1:34 AM EST (1/9)
Length of Visible Light 10h 15m
Length of Day
9h 11m
Waxing Gibbous, 66% of the Moon is Illuminated
Jan 9
Waxing Gibbous
Jan 15
Full
Jan 24
Last Quarter
Jan 30
New
Feb 6
First Quarter

Hourly Weather History & Observations

Time (EST) Temp. Windchill Dew Point Humidity Pressure Visibility Wind Dir Wind Speed Gust Speed Precip Events Conditions
12:53 AM 15.1 °F 6.4 °F 3.9 °F 61% 30.45 in 10.0 mi East 5.8 mph - N/A   Overcast
1:53 AM 14.0 °F - 7.0 °F 74% 30.47 in 10.0 mi Calm Calm - N/A   Overcast
2:53 AM 14.0 °F 8.2 °F 9.0 °F 80% 30.50 in 9.0 mi NW 3.5 mph - 0.00 in   Overcast
3:53 AM 16.0 °F 7.4 °F 10.9 °F 81% 30.51 in 7.0 mi NW 5.8 mph - 0.00 in Snow Light Snow
4:53 AM 16.0 °F - 12.0 °F 84% 30.53 in 5.0 mi Calm Calm - 0.00 in Snow Light Snow
5:29 AM 16.0 °F - 12.0 °F 84% 30.51 in 4.0 mi Calm Calm - 0.00 in Snow Light Snow
5:53 AM 16.0 °F - 12.0 °F 84% 30.55 in 2.5 mi Calm Calm - 0.00 in Snow Light Snow
6:53 AM 16.0 °F 8.8 °F 12.9 °F 88% 30.58 in 2.5 mi NNW 4.6 mph - 0.00 in Snow Light Snow
7:33 AM 16.0 °F 10.4 °F 12.9 °F 88% 30.57 in 2.5 mi NW 3.5 mph - 0.00 in Snow Light Snow
7:53 AM 15.1 °F 9.4 °F 12.9 °F 91% 30.61 in 2.5 mi WNW 3.5 mph - 0.00 in Snow Light Snow
8:36 AM 16.0 °F - 12.9 °F 88% 30.60 in 4.0 mi Calm Calm - 0.00 in Snow Light Snow
8:53 AM 16.0 °F - 12.9 °F 88% 30.63 in 3.0 mi Calm Calm - 0.00 in Snow Light Snow
9:06 AM 17.1 °F 11.7 °F 12.9 °F 84% 30.60 in 2.5 mi NNW 3.5 mph - 0.00 in Snow Light Snow
9:24 AM 17.1 °F 10.0 °F 12.9 °F 84% 30.61 in 1.8 mi NNW 4.6 mph - 0.00 in Snow Light Snow
9:31 AM 17.1 °F 10.0 °F 14.0 °F 88% 30.61 in 2.5 mi NNW 4.6 mph - 0.00 in Snow Light Snow
9:53 AM 18.0 °F 11.1 °F 14.0 °F 84% 30.65 in 2.5 mi NNW 4.6 mph - 0.00 in Snow Light Snow
10:13 AM 19.0 °F 6.8 °F 12.9 °F 77% 30.63 in 5.0 mi West 11.5 mph - 0.00 in Snow Light Snow
10:53 AM 19.0 °F 11.1 °F 12.9 °F 77% 30.66 in 10.0 mi West 5.8 mph - 0.00 in   Overcast
11:17 AM 19.9 °F 13.4 °F 12.9 °F 74% 30.63 in 9.0 mi West 4.6 mph - N/A   Overcast
11:41 AM 19.0 °F 10.0 °F 12.9 °F 77% 30.62 in 10.0 mi WSW 6.9 mph - N/A   Overcast
11:53 AM 19.9 °F 12.1 °F 12.9 °F 74% 30.64 in 10.0 mi West 5.8 mph - N/A   Overcast
12:36 PM 19.9 °F 13.4 °F 10.9 °F 68% 30.60 in 10.0 mi West 4.6 mph - N/A   Mostly Cloudy
12:43 PM 19.9 °F 13.4 °F 10.9 °F 68% 30.60 in 10.0 mi West 4.6 mph - N/A   Mostly Cloudy
12:53 PM 21.0 °F 13.4 °F 12.0 °F 68% 30.63 in 10.0 mi West 5.8 mph - N/A   Mostly Cloudy
1:45 PM 21.9 °F 14.5 °F 10.9 °F 63% 30.60 in 9.0 mi West 5.8 mph - N/A   Overcast
1:53 PM 21.9 °F 14.5 °F 12.0 °F 66% 30.62 in 10.0 mi WSW 5.8 mph - N/A   Overcast
2:53 PM 23.0 °F - 12.9 °F 65% 30.62 in 9.0 mi Calm Calm - 0.00 in   Overcast
3:33 PM 21.0 °F 14.6 °F 12.0 °F 68% 30.58 in 10.0 mi NW 4.6 mph - N/A   Scattered Clouds
3:53 PM 21.9 °F 17.2 °F 10.9 °F 63% 30.61 in 10.0 mi NNW 3.5 mph - N/A   Clear
4:53 PM 18.0 °F - 10.0 °F 71% 30.61 in 10.0 mi Calm Calm - N/A   Clear
6:53 PM 10.9 °F 1.4 °F 5.0 °F 77% 30.60 in 10.0 mi East 5.8 mph - N/A   Clear
7:53 PM 10.0 °F 1.8 °F 5.0 °F 80% 30.60 in 10.0 mi ESE 4.6 mph - N/A   Clear
8:53 PM 10.0 °F -0.9 °F 3.9 °F 76% 30.57 in 10.0 mi ESE 6.9 mph - N/A   Clear
9:53 PM 12.0 °F 0.5 °F 5.0 °F 73% 30.56 in 10.0 mi ESE 8.1 mph - N/A   Clear
10:53 PM 12.0 °F 1.5 °F 6.1 °F 77% 30.53 in 10.0 mi SE 6.9 mph - N/A   Clear
11:53 PM 12.9 °F 5.2 °F 7.0 °F 77% 30.53 in 10.0 mi SE 4.6 mph - N/A   Partly Cloudy